Weather History for Marshfield, WI

Change the Weather History Date:

Saturday, June 23, 2012

  Actual Average Record
Temperature  
Mean Temperature 66 °F -  
Max Temperature 78 °F 77 °F 94 °F (1934)
Min Temperature 55 °F 52 °F 34 °F (1972)
Cooling Degree Days 1    
Growing Degree Days 16 (Base 50)    
Moisture  
Dew Point 59 °F    
Average Humidity 77    
Maximum Humidity 90    
Minimum Humidity 58    
Precipitation  
Precipitation 0.00 in - - ()
Sea Level Pressure  
Sea Level Pressure 30.00 in    
Wind  
Wind Speed 3 mph (SSW)    
Max Wind Speed 9 mph    
Max Gust Speed -    
Visibility 10 miles    
Events Rain    
Averages and records for this station are not official NWS values.
T = Trace of Precipitation, MM = Missing Value Source: NWS Daily Summary

Daily Weather History Graph

Daily Weather History Graph

Search for Another Location

Airport:

Trip Planner

Search our weather history database for the weather conditions in past years. The results will help you decide how hot, cold, wet, or windy it might be!

Date:

Astronomy

Jun. 23, 2012 Rise Set
Actual Time 5:16 AM CDT 8:50 PM CDT
Civil Twilight 4:39 AM CDT 9:27 PM CDT
Nautical Twilight 3:50 AM CDT 10:16 PM CDT
Astronomical Twilight 2:45 AM CDT 11:20 PM CDT
Moon 9:28 AM CDT (6/23) 11:06 PM CDT (6/23)
Length of Visible Light 16h 48m
Length of Day
15h 33m
Waxing Crescent, 16% of the Moon is Illuminated
Jun 23
Waxing Crescent
Jun 26
First Quarter
Jul 3
Full
Jul 10
Last Quarter
Jul 18
New

Hourly Weather History & Observations

Time (CDT) Temp. Dew Point Humidity Pressure Visibility Wind Dir Wind Speed Gust Speed Precip Events Conditions
12:54 AM 59.0 °F 54.0 °F 83% 30.00 in 10.0 mi Calm Calm - N/A   Clear
1:54 AM 57.9 °F 54.0 °F 87% 30.01 in 10.0 mi Calm Calm - N/A   Clear
2:54 AM 57.9 °F 54.0 °F 87% 30.00 in 10.0 mi Calm Calm - N/A   Clear
3:54 AM 55.9 °F 53.1 °F 90% 30.00 in 10.0 mi Calm Calm - N/A   Clear
4:54 AM 55.9 °F 53.1 °F 90% 29.99 in 10.0 mi Calm Calm - N/A   Clear
5:54 AM 55.9 °F 53.1 °F 90% 30.00 in 10.0 mi Calm Calm - N/A   Partly Cloudy
6:54 AM 59.0 °F 55.9 °F 90% 30.01 in 10.0 mi South 5.8 mph - N/A   Clear
7:54 AM 63.0 °F 57.9 °F 84% 30.01 in 10.0 mi South 4.6 mph - N/A   Clear
8:54 AM 63.0 °F 59.0 °F 87% 30.03 in 7.0 mi SW 4.6 mph - 0.00 in Rain Light Rain
9:54 AM 68.0 °F 60.1 °F 76% 30.02 in 10.0 mi SW 8.1 mph - 0.00 in   Partly Cloudy
10:54 AM 69.1 °F 60.1 °F 73% 30.02 in 10.0 mi SSW 4.6 mph - 0.00 in Rain Light Rain
11:54 AM 71.1 °F 60.1 °F 68% 30.01 in 10.0 mi South 4.6 mph - 0.00 in   Partly Cloudy
12:54 PM 73.9 °F 60.1 °F 62% 30.01 in 10.0 mi SSW 8.1 mph - N/A   Partly Cloudy
1:54 PM 77.0 °F 61.0 °F 58% 29.99 in 10.0 mi South 9.2 mph - N/A   Clear
2:54 PM 75.9 °F 62.1 °F 62% 29.99 in 10.0 mi SSW 5.8 mph - N/A   Mostly Cloudy
3:54 PM 77.0 °F 61.0 °F 58% 29.98 in 10.0 mi SW 8.1 mph - N/A   Mostly Cloudy
4:54 PM 73.0 °F 63.0 °F 71% 29.98 in 10.0 mi SW 4.6 mph - 0.00 in   Overcast
5:54 PM 73.0 °F 62.1 °F 68% 29.98 in 10.0 mi South 4.6 mph - N/A   Mostly Cloudy
6:54 PM 73.0 °F 62.1 °F 68% 29.98 in 10.0 mi SSE 4.6 mph - N/A   Clear
7:54 PM 72.0 °F 62.1 °F 71% 29.97 in 10.0 mi SSW 3.5 mph - N/A   Mostly Cloudy
8:54 PM 71.1 °F 62.1 °F 73% 29.98 in 10.0 mi Calm Calm - N/A   Overcast
9:54 PM 69.1 °F 63.0 °F 81% 29.99 in 10.0 mi Calm Calm - N/A   Overcast
10:54 PM 66.9 °F 63.0 °F 87% 29.97 in 10.0 mi South 4.6 mph - N/A   Overcast
11:54 PM 69.1 °F 62.1 °F 78% 29.97 in 10.0 mi SSW 4.6 mph - N/A   Overcast